Starlink 34858

operational
NORAD ID: 65023 Int'l Des: 2025-161 Owner: SPXS Country: US Constellation: starlink
LEOCIRCULAR

关于 Starlink 34858

正在加载描述...

实时位置

正在加载3D地球...

即将过境

高度历史

Altitude vs Time

uPlot chart will show altitude changes over time

两行轨道根数

1 65023U 25161J 26095.43936363 .00043603 00000-0 14754-2 0 9999
2 65023 53.1572 170.0737 0001238 77.8467 282.2673 15.30205378 39410
Epoch: Apr 5, 2026 • Age: 7 hours

当前状态

高度 480.1 km
速度 7.63 km/s
星下点 50.05°N, 140.64°E
发射日期 Jul 30, 2025
运行时间 0.6 years
类型 internet

技术详情

分类 Payload
质量 575.00 kg
干质量 530.00 kg
总质量 575.00 kg
长度 0.30 m
直径 4.10 m
跨度 29.00 m
形状 Box + pan
制造商 SPXS
平台类型 Starlink V2MO
阶段状态 In Orbit
所有者/国家 SPXS/US

大型星座

Loading constellations...